Regional Weather Roundup
Issued by NWS Upton, NY

Current Version | Previous Version | Graphics & Text | Print | Product List | Glossary Off
Versions: 1 2 3 4 5 6 7 8 9 10 11 12 13 14 15 16 17 18 19 20 21 22 23 24 25 26 27 28 29 30 31 32 33 34 35 36 37 38 39 40 41 42 43 44 45 46 47 48 49

000
ASUS41 KOKX 272305
RWROKX

REGIONAL WEATHER ROUNDUP
NATIONAL WEATHER SERVICE NEW YORK NY
600 PM EST TUE JAN 27 2015

NOTE: "FAIR" INDICATES FEW OR NO CLOUDS BELOW 12,000 FEET WITH NO
SIGNIFICANT WEATHER AND/OR OBSTRUCTIONS TO VISIBILITY.

NYZ071-072-176-178-NJZ106-104-280000-
NEW YORK CITY METRO AREA


CITY           SKY/WX    TMP DP  RH WIND       PRES   REMARKS
CENTRAL PARK   CLOUDY    26  15  63 VRB5      29.72R WCI  20
LAGUARDIA APRT CLOUDY    26  15  63 N15       29.70R WCI  14
KENNEDY INTL   CLOUDY    26  15  63 N15       29.71R WCI  14
NEWARK/LIBERTY CLOUDY    27  16  63 NW10      29.71R WCI  17
BRNX BOT. GARD   N/A    N/A N/A N/A NW6       29.72R
TETERBORO      CLOUDY    26  15  63 N6        29.70R WCI  19
$$

NYZ177-179-078>081-280000-
LONG ISLAND NEW YORK

CITY           SKY/WX    TMP DP  RH WIND       PRES   REMARKS
FARMINGDALE    CLOUDY    25  12  58 N20G25    29.68R WCI  11
ISLIP          CLOUDY    23  12  62 N20G33    29.64R WCI   8
SHIRLEY        CLOUDY    22  11  62 NW16G25   29.66R WCI   8
WESTHAMPTON    MIX PCPN  22  12  65 NW22G29   29.65R WCI   6
MONTAUK POINT    N/A     24  16  71 N21G31    29.60R WCI   9
$$

NYZ052-065-067-280000-
HUDSON VALLEY

CITY           SKY/WX    TMP DP  RH WIND       PRES   REMARKS
WHITE PLAINS   CLOUDY    21  12  68 N20G28    29.67R WCI   6
NEWBURGH       CLOUDY    19  14  79 NE12      29.71R WCI   7
MONTGOMERY     CLOUDY    20  12  71 NE9       29.71R WCI   9
POUGHKEEPSIE   CLOUDY    18   9  68 N13G21    29.74R WCI   5
ALBANY         FLURRIES  12   0  58 N10       29.84R WCI  -1
$$

NJZ001-105-106-008-010-013-015-019>022-104-280000-
NEW JERSEY

CITY           SKY/WX    TMP DP  RH WIND       PRES   REMARKS
NEWARK/LIBERTY CLOUDY    27  16  63 NW10      29.71R WCI  17
TETERBORO      CLOUDY    26  15  63 N6        29.70R WCI  19
CALDWELL       CLOUDY    25  13  60 N6G18     29.72R WCI  18
MORRISTOWN     CLOUDY    27  16  63 N13G25    29.71R WCI  16
SOMERVILLE     CLOUDY    27  12  53 NW9G21    29.72R WCI  18
SUSSEX         MOCLDY    22   7  52 N9        29.72R WCI  12
ANDOVER          N/A     22   6  50 N12G20    29.72R WCI  10
TRENTON        CLOUDY    29  11  47 N14       29.72R WCI  18
MILLVILLE      PTCLDY    30  15  53 NW9G20    29.75R WCI  22
ATLANTIC CITY  MOCLDY    30  15  53 NW7       29.73R WCI  23
WRIGHTSTOWN    NOT AVBL
TOMS RIVER     CLOUDY    28  19  69 NW10      29.72R WCI  19
BELMAR         CLOUDY    28  14  54 NW13      29.70R WCI  18
$$

PAZ047>061-062-071-280000-
EASTERN PENNSYLVANIA

CITY           SKY/WX    TMP DP  RH WIND       PRES   REMARKS
PHILADELPHIA   MOCLDY    32  11  41 NW14      29.76R WCI  22
ALLENTOWN      CLOUDY    25   8  48 NW14      29.77R WCI  13
SCRANTON       CLOUDY    16   4  59 NW15G23   29.82R WCI   1
$$

CTZ002-004>006-009-010-012-RIZ004-006-007-MAZ004-011-015-280000-
SOUTHERN NEW ENGLAND
 IN CT

CITY           SKY/WX    TMP DP  RH WIND       PRES   REMARKS
BRADLEY INTL   FLURRIES  18   6  59 N15       29.65R WCI   4
HARTFORD       CLOUDY    19   7  59 NW12G21   29.67R WCI   7
DANBURY        CLOUDY    19   7  59 N16G28    29.69R WCI   4
WTRBRY/OXFORD  CLEAR     16  -8  35 N18G25    29.63R WCI  -1
BRIDGEPORT     CLOUDY    21  10  62 NW21G37   29.67R WCI   5
MERIDEN        LGT SNOW  18   8  65 NW18G30   29.67R WCI   2
NEW HAVEN      FLURRIES  21   9  59 N12G23    29.67R WCI   9
CHESTER        LGT SNOW  19  12  73 NW16      29.61R WCI   5
GROTON         LGT SNOW  21  14  74 N23G31    29.59R WCI   5
WILLIMANTIC    LGT SNOW  19  10  68 N17G26    29.61R WCI   4

 IN RI

CITY           SKY/WX    TMP DP  RH WIND       PRES   REMARKS
PROVIDENCE     LGT SNOW  19  12  74 NW14      29.55R WCI   6
BLOCK ISLAND   CLOUDY    21  12  68 N17G29    29.54R WCI   7
WESTERLY       MIX PCPN  21  13  71 NW9G17    29.58R WCI  11

 IN MA

CITY           SKY/WX    TMP DP  RH WIND       PRES   REMARKS
BOSTON         LGT SNOW  19  14  81 N22G37    29.55R VSB 1   WCI   2
WORCESTER      LGT SNOW  11   6  81 NW15G32   29.52R WCI  -5
WESTFIELD      LGT SNOW  16   6  65 N20       29.66R WCI  -1
PROVINCETOWN     N/A    N/A N/A N/A MISG        N/A
NANTUCKET      SNOW      21  20  96 NW33G53   29.39R VSB 1/2 WCI   2
$$

ANZ330-335-338-340-345-350-353-355-280000-
COASTAL MARINE OBSERVATIONS


STATION/POSITION TIME  SKY/WX   TEMP    WIND        PRES    VSBY  WAVE
                                AIR SEA DIR/SP/G                  HT/PER
                 (UTC)          (F)     (DEG/KT/KT) (MB)    (MI)  (FT/S)
NY HARB ENTRANCE 2300            29 40  350/ 19/ 23 1005.0          6/12
4S FIRE IS       2300               38                N/A           5/12
20S FIRE ISLAND  2200               43              1003.4         10/12
23SW MTP         2300                                 N/A           8/13
HUDSON CANYON    NOT AVBL
EXECUTION ROCKS  2300            26 34  340/ 16/ 19   N/A
WESTERN LI SOUND 2300            26     350/ 16/ 21   N/A           2/ 3
CENTRAL LI SOUND 2200            24 36  320/ 21/ 27   N/A           4/ 5
EASTERN LI SOUND NOT AVBL
ROBBINS REEF     2300            28     330/ 14/ 19 1004.3
$$


>>>>>>>>>>>>>>>>>>>>>>>>>>>> KEY <<<<<<<<<<<<<<<<<<<<<<<<<<<
>                                                          <
>     SKY/WX - SKY CONDITION/PRESENT WEATHER               <
>     TMP    - TEMPERATURE IN FAHRENHEIT                   <
>     DP     - DEWPOINT IN FAHRENHEIT                      <
>     RH     - RELATIVE HUMIDITY IN PERCENT                <
>     WIND   - DIRECTION AND SPEED IN MPH                  <
>     PRES   - MEAN SEA LEVEL PRESSURE IN INCHES OF HG     <
>     WCI    - WIND CHILL INDEX                            <
>     VSB    - VISIBILITY IN MILES                         <
>     HX     - HEAT INDEX                                  <
>     TC     - TEMPERATURE IN CELSIUS                      <
>     VRB    - VARIABLE WIND DIRECTION                     <
>                                                          <
>>>>>>>>>>>>>>>>>>>>>>>>>>>> KEY <<<<<<<<<<<<<<<<<<<<<<<<<<<




USA.gov is the U.S. government's official web portal to all federal, state and local government web resources and services.